This demonstration page uses our WeatherBlox Daily Observations layout. Learn more.

Left ArrowRight Arrow

Hourly Observations for August 31, 2019

Temp ( °F °C ) Dew Point ( °F °C ) Humidity (%) Winds ( mph kmh ) Pressure ( in mb ) Visibility ( mi km ) Precip ( " mm )
12:59 am 00:59 Clear 74 23.3 63 17.2 69 69 SSW 9 15 30.16 1021 10 16 0.00 0.00
1:59 am 01:59 Clear 73 22.8 62 16.7 69 69 S 6 9 30.15 1021 10 16 0.00 0.00
2:59 am 02:59 Clear 71 21.7 63 17.2 76 76 SSW 6 9 30.15 1021 10 16 0.00 0.00
3:59 am 03:59 Clear 70 21.1 62 16.7 76 76 SSW 6 9 30.14 1021 10 16 0.00 0.00
4:59 am 04:59 Clear 69 20.6 63 17.2 81 81 SSW 3 6 30.14 1021 10 16 0.00 0.00
5:59 am 05:59 Clear 68 20 64 17.8 87 87 SSW 3 6 30.16 1021 10 16 0.00 0.00
6:59 am 06:59 Mostly Sunny 67 19.4 64 17.8 91 91 Calm 30.16 1022 10 16 0.00 0.00
7:59 am 07:59 Mostly Sunny 73 22.8 67 19.4 81 81 SW 3 6 30.18 1022 10 16 0.00 0.00
8:59 am 08:59 Mostly Sunny 77 25 67 19.4 71 71 WSW 6 9 30.19 1022 10 16 0.00 0.00
9:59 am 09:59 Mostly Sunny 80 26.7 68 20 67 67 WSW 6 9 30.19 1022 10 16 0.00 0.00
10:59 am 10:59 Mostly Sunny 83 28.3 67 19.4 59 59 Calm 30.19 1022 10 16 0.00 0.00
11:59 am 11:59 Mostly Sunny 87 30.6 63 17.2 45 45 VRB 3 6 30.19 1022 10 16 0.00 0.00
12:59 pm 12:59 Mostly Sunny 88 31.1 61 16.1 40 40 NE 6 9 30.19 1022 10 16 0.00 0.00
1:59 pm 13:59 Mostly Sunny 89 31.7 63 17.2 42 42 ENE 9 15 30.19 1022 10 16 0.00 0.00
2:59 pm 14:59 Partly Cloudy 88 31.1 67 19.4 50 50 ENE 10 17 30.18 1022 10 16 0.00 0.00
3:59 pm 15:59 Partly Cloudy 89 31.7 65 18.3 45 45 ENE 12 19 30.16 1022 10 16 0.00 0.00
4:59 pm 16:59 Mostly Sunny 88 31.1 65 18.3 46 46 E 10 17 30.16 1022 10 16 0.00 0.00
5:59 pm 17:59 Mostly Sunny 86 30 64 17.8 48 48 ESE 7 11 30.16 1021 10 16 0.00 0.00
6:59 pm 18:59 Partly Cloudy 83 28.3 63 17.2 51 51 SE 7 11 30.16 1022 10 16 0.00 0.00
7:59 pm 19:59 Partly Cloudy 79 26.1 62 16.7 56 56 ESE 3 6 30.17 1022 10 16 0.00 0.00
8:59 pm 20:59 Partly Cloudy 76 24.4 63 17.2 64 64 ESE 5 7 30.18 1022 10 16 0.00 0.00
9:59 pm 21:59 Clear 75 23.9 63 17.2 66 66 ESE 3 6 30.20 1023 10 16 0.00 0.00
10:59 pm 22:59 Mostly Clear 74 23.3 63 17.2 69 69 ESE 6 9 30.21 1023 10 16 0.00 0.00
11:59 pm 23:59 Clear 72 22.2 64 17.8 76 76 Calm 30.23 1024 10 16 0.00 0.00

Powered by AerisWeather